[[{"header":{"parameterUnit":"m.s-1","parameterCategory":2,"la1":30.2991,"la2":30.254,"lo1":-89.0895,"lo2":-89.0444,"dy":0.0017,"dx":0.0017,"nx":28,"ny":28,"refTime":"2024-06-22T09:00:00:Z","depth":"0","parameterNumber":2,"parameterNumberName":"U-component_of_CURRENTS"},"data":[0,0,0,0,0,0,0,0,0,0,0,0,0,0,0,0,0,0,0,0,0,0,0,0,0,0,0,0,0,0,0,0,0,0,0,0,0,0,0,0,0,0,0,0,0,0,0,0,0,0,0,0,0,0,0,0,0,0,-0.2785,-0.2787,0,-0.289,-0.2891,-0.2892,-0.2876,-0.2874,-0.2873,-0.2871,-0.2883,-0.2885,-0.2887,0,0,0,0,0,0,0,0,0,0,0,0,0,-0.2642,-0.2645,-0.2785,-0.2787,-0.2788,-0.289,-0.2891,-0.2892,-0.2876,-0.2874,-0.2872,-0.287,-0.2883,-0.2885,-0.2887,0,0,0,0,0,0,0,0,0,0,0,0,0,-0.2719,-0.2645,-0.2785,-0.2794,-0.2796,-0.2889,-0.2891,-0.2892,-0.2876,-0.2874,-0.2872,-0.287,-0.2882,-0.2885,-0.2887,-0.2951,0,0,-0.2896,-0.2897,0,0,0,0,0,0,0,0,-0.2715,-0.2724,-0.2791,-0.2794,-0.2796,-0.2869,-0.2845,-0.2908,-0.2877,-0.2844,-0.2871,-0.2868,-0.2873,-0.2877,-0.29,-0.2952,-0.2952,-0.2896,-0.2897,-0.2899,-0.2899,0,0,0,0,0,0,0,-0.2709,-0.272,-0.2824,-0.2793,-0.2796,-0.2817,-0.2825,-0.2858,-0.2867,-0.2846,-0.2846,-0.2862,-0.2873,-0.2897,-0.29,-0.2952,-0.2896,-0.2898,-0.29,-0.2901,-0.3018,-0.3019,0,0,0,0,0,0,-0.2701,-0.2715,-0.2821,-0.2828,-0.2751,-0.2822,-0.283,-0.2846,-0.2869,-0.2871,-0.2864,-0.2861,-0.2894,-0.2896,-0.29,-0.2945,-0.2899,-0.2901,-0.2903,-0.3017,-0.3018,-0.302,0,0,0,0,0,0,-0.2697,-0.2709,-0.2817,-0.2775,-0.279,-0.2826,-0.2845,-0.285,-0.2862,-0.2883,-0.2883,-0.287,-0.2892,-0.2896,-0.292,-0.2945,-0.2902,-0.2905,-0.3015,-0.3017,-0.3019,-0.3054,0,0,0,0,0,0,-0.2693,-0.2707,-0.2714,-0.2775,-0.2793,-0.2863,-0.2848,-0.2854,-0.2878,-0.2874,-0.289,-0.2889,-0.289,-0.2916,-0.2923,-0.2948,-0.2907,-0.3013,-0.3016,-0.3018,-0.3051,-0.3057,-0.3063,0,0,0,0,0,-0.2687,-0.2708,-0.2713,-0.2726,-0.2801,-0.2864,-0.2875,-0.2891,-0.288,-0.2892,-0.2899,-0.2888,-0.2939,-0.292,-0.2927,-0.2954,-0.3011,-0.3015,-0.3018,-0.3048,-0.3056,-0.3062,0,0,0,0,0,0,-0.2652,-0.2711,-0.2717,-0.2754,-0.28,-0.2862,-0.2881,-0.2894,-0.2915,-0.2904,-0.2911,-0.2913,-0.2949,-0.2949,-0.2928,-0.2997,-0.2973,-0.2978,-0.2993,-0.3001,-0.3006,-0.299,-0.2909,0,0,0,0,0,-0.2649,-0.2674,-0.2735,-0.2764,-0.2787,-0.2834,-0.286,-0.2875,-0.2906,-0.2913,-0.2928,-0.2944,-0.2977,-0.2981,-0.3011,-0.3047,-0.3004,-0.3069,-0.3075,-0.3079,-0.3073,-0.3065,-0.3068,-0.3031,-0.3031,-0.3031,0,0,-0.2643,-0.268,-0.2693,-0.2758,-0.2794,-0.2846,-0.2842,-0.2885,-0.2926,-0.2913,-0.296,-0.2972,-0.2994,-0.3036,-0.3051,-0.3031,-0.3056,-0.3084,-0.3087,-0.3078,-0.3068,-0.3072,-0.3075,-0.3033,-0.3033,-0.3033,0,0,-0.2656,-0.2679,-0.2707,-0.275,-0.2808,-0.2848,-0.2858,-0.292,-0.2938,-0.2993,-0.2993,-0.301,-0.3066,-0.3077,-0.3092,-0.3148,-0.3096,-0.3164,-0.3171,-0.3164,-0.3166,-0.3168,-0.3059,-0.3051,-0.3156,-0.3156,-0.3156,0,-0.2646,-0.2689,-0.2725,-0.2772,-0.281,-0.2848,-0.2894,-0.2939,-0.2998,-0.3019,-0.3006,-0.308,-0.3087,-0.3135,-0.3146,-0.316,-0.3114,-0.3141,-0.3169,-0.317,-0.3171,-0.306,-0.305,-0.3158,-0.3158,-0.3157,-0.3157,0,-0.2691,-0.2721,-0.2745,-0.2814,-0.2863,-0.2906,-0.2975,-0.3017,-0.3043,-0.3079,-0.3128,-0.314,-0.317,-0.3184,-0.3181,-0.3204,-0.3149,-0.3183,-0.3144,-0.3176,-0.3057,-0.3046,-0.3161,-0.316,-0.3159,-0.3159,0,0,-0.2685,-0.2756,-0.2766,-0.2791,-0.2883,-0.2927,-0.3007,-0.3082,-0.3122,-0.3165,-0.3203,-0.3247,-0.3231,-0.3246,-0.3242,-0.3226,-0.3169,-0.3201,-0.3199,-0.3077,-0.3074,-0.2943,-0.2917,-0.3214,-0.3214,-0.3214,-0.2964,0,-0.2706,-0.2769,-0.2816,-0.2884,-0.2922,-0.2988,-0.3063,-0.3135,-0.3182,-0.323,-0.3242,-0.3276,-0.3265,-0.3263,-0.3253,-0.3225,-0.3153,-0.3228,-0.3074,-0.3067,-0.2937,-0.2907,-0.2829,-0.2594,-0.2953,-0.2951,-0.295,0,-0.2745,-0.2775,-0.2829,-0.2905,-0.2932,-0.2983,-0.3087,-0.3158,-0.3242,-0.3273,-0.3301,-0.331,-0.3306,-0.3285,-0.3207,-0.3257,-0.3148,-0.3097,-0.3087,-0.2949,-0.2919,-0.2635,-0.2561,-0.2559,-0.2933,-0.2935,-0.2936,0,-0.272,-0.2794,-0.2823,-0.2852,-0.2949,-0.2987,-0.3052,-0.3157,-0.3216,-0.3281,-0.3301,-0.3321,-0.3306,-0.3242,-0.3126,-0.317,-0.2994,-0.3049,-0.2799,-0.2785,-0.2677,-0.2654,-0.2575,-0.2934,-0.2935,-0.2936,-0.2936,0,-0.2731,-0.2759,-0.2802,-0.282,-0.2872,-0.2957,-0.3033,-0.3105,-0.3196,-0.3249,-0.3297,-0.3309,-0.33,-0.3211,-0.3109,-0.2896,-0.2969,-0.2765,-0.2723,-0.2679,-0.2661,-0.2623,-0.2676,-0.2926,-0.2928,-0.293,-0.2932,0,-0.2711,-0.2737,-0.2769,-0.2834,-0.2856,-0.2896,-0.3014,-0.3078,-0.3156,-0.3218,-0.3231,-0.3284,-0.3167,-0.3069,-0.2929,-0.284,-0.2617,-0.2553,-0.2443,-0.2395,-0.221,-0.2268,-0.2112,-0.2048,-0.2268,-0.2263,-0.2259,0,-0.2705,-0.2712,-0.2755,-0.2775,-0.2798,-0.2868,-0.2935,-0.3043,-0.3107,-0.3191,-0.3207,-0.3127,-0.3041,-0.2765,-0.2588,-0.2319,-0.2362,-0.2104,-0.2195,-0.2151,-0.2187,-0.2246,-0.2211,-0.203,-0.2024,-0.202,-0.2016,0,-0.2688,-0.2694,-0.2719,-0.2747,-0.2788,-0.2848,-0.293,-0.2964,-0.3086,-0.31,-0.3091,-0.3016,-0.2764,-0.2493,-0.2162,-0.2024,-0.2105,-0.2003,-0.2025,-0.2031,-0.2027,-0.1961,-0.2183,-0.1977,-0.1981,-0.1984,-0.1986,-0.1987,-0.267,-0.2677,-0.2698,-0.2726,-0.2776,-0.2807,-0.281,-0.2874,-0.2899,-0.2861,-0.2898,-0.2702,-0.2479,-0.2019,-0.1868,-0.163,-0.1731,-0.1607,-0.1676,-0.1735,-0.1707,-0.178,-0.1512,-0.1513,-0.1514,-0.1515,-0.1516,0,-0.2645,-0.266,-0.2686,-0.2704,-0.2728,-0.2762,-0.2801,-0.2753,-0.2697,-0.2609,-0.2516,-0.2247,-0.1944,-0.1742,-0.147,-0.1368,-0.137,-0.135,-0.1469,-0.1445,-0.1545,-0.1572,-0.1226,-0.1226,-0.1226,-0.1226,-0.1226,-0.1226,-0.2633,-0.2637,-0.2644,-0.2643,-0.2657,-0.2609,-0.2589,-0.248,-0.2368,-0.2108,-0.1918,-0.1802,-0.1655,-0.1631,-0.1424,-0.1331,-0.1339,-0.1274,-0.1303,-0.1458,-0.1491,-0.1522,-0.1559,-0.1216,-0.1216,-0.1163,-0.1163,-0.1163]},{"header":{"parameterUnit":"m.s-1","parameterCategory":2,"la1":30.2991,"la2":30.254,"lo1":-89.0895,"lo2":-89.0444,"dy":0.0017,"dx":0.0017,"nx":28,"ny":28,"refTime":"2024-06-22T09:00:00:Z","depth":"0","parameterNumber":3,"parameterNumberName":"V-component_of_CURRENTS"},"data":[0,0,0,0,0,0,0,0,0,0,0,0,0,0,0,0,0,0,0,0,0,0,0,0,0,0,0,0,0,0,0,0,0,0,0,0,0,0,0,0,0,0,0,0,0,0,0,0,0,0,0,0,0,0,0,0,0,0,-0.2125,-0.2123,0,-0.1992,-0.1991,-0.1989,-0.1889,-0.1888,-0.1887,-0.1887,-0.1498,-0.1489,-0.1479,0,0,0,0,0,0,0,0,0,0,0,0,0,-0.2181,-0.2181,-0.2125,-0.2123,-0.2122,-0.1993,-0.1991,-0.1989,-0.1889,-0.1888,-0.1887,-0.1886,-0.1501,-0.149,-0.1478,0,0,0,0,0,0,0,0,0,0,0,0,0,-0.2112,-0.2182,-0.2125,-0.2058,-0.2051,-0.1993,-0.1991,-0.1988,-0.1889,-0.1888,-0.1887,-0.1886,-0.1505,-0.1491,-0.1477,-0.141,0,0,-0.1433,-0.1426,0,0,0,0,0,0,0,0,-0.2117,-0.211,-0.2069,-0.2062,-0.2054,-0.1958,-0.1868,-0.1783,-0.1889,-0.1948,-0.1887,-0.1885,-0.163,-0.1605,-0.1584,-0.1392,-0.1375,-0.1431,-0.1423,-0.1416,-0.1412,0,0,0,0,0,0,0,-0.2122,-0.2115,-0.207,-0.2068,-0.2059,-0.1997,-0.1987,-0.1852,-0.1791,-0.1943,-0.1936,-0.1925,-0.1624,-0.1599,-0.1573,-0.1369,-0.1432,-0.1419,-0.141,-0.1404,-0.1078,-0.1078,0,0,0,0,0,0,-0.2149,-0.212,-0.2075,-0.2067,-0.2085,-0.1997,-0.1986,-0.1988,-0.1798,-0.177,-0.1926,-0.1921,-0.1624,-0.159,-0.1559,-0.145,-0.1417,-0.1403,-0.1395,-0.1078,-0.1078,-0.1078,0,0,0,0,0,0,-0.2151,-0.2147,-0.208,-0.2091,-0.2078,-0.1999,-0.2001,-0.1986,-0.1953,-0.1788,-0.1755,-0.1908,-0.1622,-0.1579,-0.1448,-0.1434,-0.1396,-0.1383,-0.1078,-0.1078,-0.1078,-0.1242,0,0,0,0,0,0,-0.2153,-0.2149,-0.2153,-0.2093,-0.2079,-0.2061,-0.2002,-0.1985,-0.1949,-0.1941,-0.1761,-0.1725,-0.1617,-0.1471,-0.1434,-0.1414,-0.1372,-0.1078,-0.1078,-0.1078,-0.1237,-0.1248,-0.1257,0,0,0,0,0,-0.2156,-0.2164,-0.2154,-0.2148,-0.209,-0.2062,-0.2049,-0.1986,-0.195,-0.1949,-0.1826,-0.173,-0.1445,-0.1459,-0.1416,-0.1391,-0.1078,-0.1078,-0.1078,-0.1232,-0.1246,-0.1257,0,0,0,0,0,0,-0.2175,-0.2153,-0.2141,-0.2138,-0.2113,-0.2046,-0.203,-0.1992,-0.19,-0.1875,-0.1722,-0.1678,-0.1564,-0.1456,-0.1476,-0.13,-0.1247,-0.1239,-0.1379,-0.139,-0.14,-0.143,-0.136,0,0,0,0,0,-0.219,-0.2198,-0.2165,-0.2163,-0.2156,-0.2097,-0.2073,-0.2037,-0.1953,-0.1913,-0.179,-0.1651,-0.1532,-0.1448,-0.1331,-0.122,-0.1099,-0.1178,-0.1189,-0.1198,-0.1194,-0.1026,-0.1021,-0.1078,-0.1078,-0.1078,0,0,-0.2195,-0.2184,-0.2186,-0.2169,-0.214,-0.2132,-0.2079,-0.2053,-0.2026,-0.1877,-0.1787,-0.1681,-0.1516,-0.1411,-0.1348,-0.1312,-0.1118,-0.1198,-0.1208,-0.1197,-0.1025,-0.1019,-0.1014,-0.1078,-0.1078,-0.1078,0,0,-0.2208,-0.2207,-0.2216,-0.2208,-0.2181,-0.2152,-0.2153,-0.2092,-0.2047,-0.1965,-0.1855,-0.1745,-0.1559,-0.1448,-0.1363,-0.135,-0.119,-0.1316,-0.1367,-0.1206,-0.1199,-0.1192,-0.1034,-0.1012,-0.1307,-0.1307,-0.1307,0,-0.221,-0.2226,-0.2212,-0.2217,-0.2212,-0.217,-0.2175,-0.2128,-0.2028,-0.198,-0.1952,-0.1705,-0.1573,-0.1432,-0.1441,-0.137,-0.1258,-0.134,-0.122,-0.121,-0.12,-0.1039,-0.1012,-0.1315,-0.1314,-0.1313,-0.1312,0,-0.2234,-0.2244,-0.2249,-0.2253,-0.2246,-0.2247,-0.2203,-0.2173,-0.2119,-0.2053,-0.1928,-0.1776,-0.1622,-0.1578,-0.15,-0.1371,-0.1309,-0.1267,-0.1196,-0.1204,-0.1034,-0.1003,-0.1326,-0.1323,-0.1321,-0.1319,0,0,-0.2251,-0.2263,-0.2269,-0.228,-0.227,-0.2269,-0.2241,-0.2195,-0.216,-0.206,-0.1983,-0.1816,-0.1741,-0.1642,-0.1533,-0.1407,-0.1248,-0.1324,-0.1312,-0.1181,-0.0886,-0.0826,-0.0785,-0.119,-0.1185,-0.1182,-0.0797,0,-0.2273,-0.23,-0.23,-0.2325,-0.2337,-0.2313,-0.2296,-0.2244,-0.2176,-0.209,-0.1938,-0.1816,-0.1759,-0.1685,-0.1557,-0.1328,-0.1174,-0.1356,-0.0884,-0.087,-0.0826,-0.0749,-0.0705,-0.0358,-0.0766,-0.0761,-0.0757,0,-0.2306,-0.2319,-0.2349,-0.2368,-0.2373,-0.2383,-0.2363,-0.2335,-0.2215,-0.2148,-0.2022,-0.1895,-0.1699,-0.1653,-0.1263,-0.1385,-0.1145,-0.0974,-0.0953,-0.0815,-0.0751,-0.041,-0.0284,-0.0134,-0.0707,-0.0711,-0.0715,0,-0.2336,-0.2362,-0.2391,-0.2398,-0.2404,-0.2413,-0.2416,-0.2347,-0.2306,-0.2168,-0.2099,-0.1883,-0.1729,-0.1451,-0.1112,-0.1165,-0.0673,-0.068,-0.039,-0.0382,-0.0207,-0.0193,0.0113,-0.0368,-0.0368,-0.0369,-0.0371,0,-0.237,-0.2395,-0.2411,-0.2425,-0.2466,-0.2454,-0.2466,-0.2433,-0.2343,-0.2271,-0.2122,-0.1996,-0.167,-0.1366,-0.1085,-0.0633,-0.0619,-0.0365,-0.0266,-0.0265,-0.0261,-0.0013,0.0018,-0.0355,-0.0358,-0.0361,-0.0363,0,-0.2402,-0.2409,-0.2445,-0.2466,-0.2481,-0.251,-0.2519,-0.2511,-0.2421,-0.2316,-0.2259,-0.2012,-0.1618,-0.1262,-0.0762,-0.056,-0.0023,0.0011,-0.0021,0.0065,0.0397,0.0415,0.0868,0.0988,0.0376,0.038,0.0383,0,-0.2425,-0.2442,-0.2483,-0.2524,-0.2541,-0.2579,-0.2607,-0.2553,-0.2517,-0.2313,-0.2243,-0.1872,-0.1577,-0.0862,-0.0417,0.013,0.0246,0.0457,0.0355,0.0457,0.0553,0.0556,0.0622,0.0542,0.0547,0.055,0.0553,0,-0.2466,-0.2477,-0.2507,-0.2585,-0.2633,-0.267,-0.2682,-0.2649,-0.2546,-0.2422,-0.2175,-0.1922,-0.1249,-0.0654,0.0011,0.0317,0.0542,0.0545,0.0696,0.075,0.074,0.0886,0.023,0.0585,0.0582,0.058,0.0578,0.0577,-0.2504,-0.2536,-0.2582,-0.2655,-0.2718,-0.2741,-0.2737,-0.2667,-0.2565,-0.2297,-0.2111,-0.1646,-0.0876,0.0057,0.037,0.095,0.0884,0.1094,0.1129,0.114,0.1187,0.0577,0.099,0.099,0.0989,0.0988,0.0988,0,-0.2536,-0.2578,-0.2659,-0.2735,-0.2811,-0.2818,-0.2779,-0.2698,-0.2528,-0.2175,-0.1878,-0.0982,-0.0247,0.0429,0.1228,0.1498,0.1537,0.1622,0.1637,0.1693,0.1232,0.1162,0.1575,0.1575,0.1575,0.1574,0.1574,0.1574,-0.2558,-0.2625,-0.2661,-0.28,-0.2858,-0.2881,-0.2836,-0.2642,-0.2359,-0.1756,-0.1183,-0.0719,0.0163,0.1243,0.1871,0.1941,0.2131,0.214,0.2242,0.1878,0.1829,0.1782,0.1726,0.225,0.2251,0.2689,0.2693,0.2697]}],[{"header":{"parameterUnit":"m.s-1","parameterCategory":2,"la1":30.2991,"la2":30.254,"lo1":-89.0895,"lo2":-89.0444,"dy":0.0017,"dx":0.0017,"nx":28,"ny":28,"refTime":"2024-06-22T09:00:00:Z","depth":"2","parameterNumber":2,"parameterNumberName":"U-component_of_CURRENTS"},"data":[0,0,0,0,0,0,0,0,0,0,0,0,0,0,0,0,0,0,0,0,0,0,0,0,0,0,0,0,0,0,0,0,0,0,0,0,0,0,0,0,0,0,0,0,0,0,0,0,0,0,0,0,0,0,0,0,0,0,-0.2285,-0.2286,0,-0.2347,-0.2348,-0.2348,-0.2352,-0.2351,-0.2351,-0.2351,-0.2259,-0.2257,-0.2254,0,0,0,0,0,0,0,0,0,0,0,0,0,-0.2125,-0.2128,-0.2285,-0.2286,-0.2288,-0.2347,-0.2348,-0.2348,-0.2352,-0.2351,-0.2351,-0.2351,-0.2259,-0.2257,-0.2254,0,0,0,0,0,0,0,0,0,0,0,0,0,-0.2187,-0.2129,-0.2285,-0.2301,-0.2303,-0.2347,-0.2348,-0.2348,-0.2352,-0.2351,-0.2351,-0.2351,-0.226,-0.2257,-0.2254,-0.224,0,0,-0.2243,-0.2242,0,0,0,0,0,0,0,0,-0.2183,-0.2192,-0.2297,-0.23,-0.2302,-0.2346,-0.2258,-0.2306,-0.2352,-0.2328,-0.2351,-0.235,-0.2277,-0.2273,-0.228,-0.2235,-0.2231,-0.2243,-0.2241,-0.224,-0.2239,0,0,0,0,0,0,0,-0.2179,-0.2189,-0.2304,-0.2299,-0.2302,-0.229,-0.2298,-0.2267,-0.2296,-0.233,-0.2331,-0.2347,-0.2277,-0.2283,-0.2277,-0.223,-0.2243,-0.224,-0.2238,-0.2237,-0.2266,-0.2269,0,0,0,0,0,0,-0.2185,-0.2186,-0.2303,-0.2307,-0.2247,-0.2293,-0.2302,-0.2328,-0.23,-0.2299,-0.2347,-0.2347,-0.2289,-0.2281,-0.2274,-0.2303,-0.224,-0.2237,-0.2235,-0.2263,-0.2267,-0.227,0,0,0,0,0,0,-0.2182,-0.2196,-0.23,-0.2251,-0.2264,-0.2297,-0.2326,-0.233,-0.2352,-0.2316,-0.231,-0.2368,-0.2288,-0.2278,-0.228,-0.2297,-0.2235,-0.2232,-0.226,-0.2264,-0.2268,-0.233,0,0,0,0,0,0,-0.2177,-0.2194,-0.2204,-0.2252,-0.2267,-0.235,-0.2327,-0.2331,-0.2364,-0.2364,-0.2332,-0.2323,-0.2287,-0.2286,-0.2277,-0.2291,-0.2229,-0.2257,-0.2262,-0.2267,-0.2324,-0.2336,-0.2345,0,0,0,0,0,-0.2171,-0.2199,-0.2204,-0.2218,-0.2284,-0.2353,-0.236,-0.2377,-0.2366,-0.2391,-0.2374,-0.2324,-0.2313,-0.2285,-0.2274,-0.2288,-0.2254,-0.2261,-0.2267,-0.2319,-0.2333,-0.2345,0,0,0,0,0,0,-0.2135,-0.2204,-0.221,-0.2257,-0.231,-0.2356,-0.2374,-0.239,-0.2398,-0.2393,-0.2348,-0.2339,-0.2363,-0.2324,-0.2294,-0.2321,-0.228,-0.2284,-0.2324,-0.2337,-0.2347,-0.2343,-0.2227,0,0,0,0,0,-0.2132,-0.2165,-0.2236,-0.2267,-0.2298,-0.2337,-0.2361,-0.2388,-0.2409,-0.2413,-0.2401,-0.2384,-0.238,-0.2356,-0.2362,-0.2347,-0.2309,-0.2359,-0.2369,-0.2378,-0.2374,-0.239,-0.2401,-0.2291,-0.229,-0.229,0,0,-0.2121,-0.2165,-0.218,-0.226,-0.2293,-0.2347,-0.235,-0.241,-0.2432,-0.2397,-0.2418,-0.2433,-0.2397,-0.2411,-0.2413,-0.2369,-0.238,-0.2386,-0.2393,-0.2383,-0.2398,-0.2408,-0.2417,-0.2295,-0.2294,-0.2293,0,0,-0.2129,-0.2163,-0.22,-0.2255,-0.2332,-0.2361,-0.2386,-0.246,-0.2466,-0.2507,-0.2493,-0.2531,-0.2506,-0.25,-0.2482,-0.2552,-0.2462,-0.2546,-0.2552,-0.257,-0.2578,-0.2585,-0.2496,-0.2495,-0.2517,-0.2518,-0.2518,0,-0.2109,-0.2172,-0.222,-0.2282,-0.2321,-0.2371,-0.2426,-0.2443,-0.2506,-0.2513,-0.2526,-0.257,-0.2555,-0.2551,-0.2578,-0.2574,-0.2525,-0.2497,-0.258,-0.2586,-0.2592,-0.25,-0.2498,-0.2521,-0.2521,-0.252,-0.252,0,-0.2153,-0.2209,-0.224,-0.2321,-0.2371,-0.2433,-0.2482,-0.2519,-0.2544,-0.257,-0.2624,-0.2642,-0.2666,-0.267,-0.2629,-0.266,-0.2589,-0.2614,-0.2537,-0.2606,-0.2505,-0.2501,-0.2527,-0.2525,-0.2524,-0.2523,0,0,-0.2089,-0.2239,-0.2246,-0.2294,-0.2402,-0.2446,-0.2484,-0.2535,-0.2556,-0.2625,-0.2657,-0.2692,-0.2733,-0.272,-0.2706,-0.2698,-0.2689,-0.2653,-0.2653,-0.2543,-0.2633,-0.2495,-0.2476,-0.2718,-0.2719,-0.272,-0.2524,0,-0.2101,-0.2206,-0.2283,-0.2366,-0.2423,-0.249,-0.252,-0.257,-0.261,-0.2655,-0.2682,-0.2735,-0.2733,-0.2765,-0.2765,-0.274,-0.2691,-0.2734,-0.2601,-0.2595,-0.2449,-0.2474,-0.2342,-0.2152,-0.252,-0.2519,-0.2519,0,-0.2109,-0.218,-0.2267,-0.239,-0.2421,-0.2476,-0.2539,-0.2587,-0.2644,-0.2683,-0.2748,-0.2783,-0.2804,-0.2811,-0.2768,-0.2787,-0.2706,-0.2663,-0.2656,-0.2505,-0.2453,-0.2157,-0.213,-0.2512,-0.2512,-0.2513,-0.2513,0,-0.2013,-0.2162,-0.222,-0.2266,-0.241,-0.2447,-0.2518,-0.2593,-0.2622,-0.2715,-0.2756,-0.281,-0.2838,-0.2807,-0.2711,-0.2752,-0.2607,-0.2671,-0.2444,-0.2428,-0.228,-0.2251,-0.2612,-0.2612,-0.2613,-0.2613,-0.2614,0,-0.1983,-0.203,-0.2185,-0.2218,-0.2279,-0.241,-0.2473,-0.2544,-0.2643,-0.2673,-0.2775,-0.2782,-0.2844,-0.2767,-0.2693,-0.2518,-0.2596,-0.2428,-0.2387,-0.2291,-0.2267,-0.2572,-0.257,-0.2606,-0.2607,-0.2609,-0.261,0,-0.186,-0.197,-0.2042,-0.2193,-0.224,-0.2281,-0.2439,-0.2482,-0.2599,-0.2643,-0.2678,-0.2752,-0.268,-0.2626,-0.2539,-0.2471,-0.234,-0.2231,-0.2053,-0.1997,-0.2149,-0.2153,-0.203,-0.2024,-0.2019,-0.2015,-0.2011,0,-0.1806,-0.1831,-0.1979,-0.2025,-0.2098,-0.2195,-0.2257,-0.2421,-0.2468,-0.2584,-0.2575,-0.2563,-0.2473,-0.2271,-0.2176,-0.1991,-0.2093,-0.1766,-0.1871,-0.2125,-0.2098,-0.2111,-0.2122,-0.1664,-0.1658,-0.1653,-0.1649,0,-0.1682,-0.1733,-0.1791,-0.1879,-0.1958,-0.2045,-0.2155,-0.2175,-0.2342,-0.2353,-0.2341,-0.2289,-0.2158,-0.1949,-0.174,-0.1635,-0.182,-0.1657,-0.1976,-0.1845,-0.1769,-0.1747,-0.1772,-0.1604,-0.1609,-0.1612,-0.1614,-0.1616,-0.1561,-0.157,-0.1649,-0.1707,-0.1814,-0.1873,-0.1869,-0.1945,-0.1946,-0.1943,-0.2026,-0.1891,-0.1861,-0.1496,-0.1357,-0.1305,-0.1449,-0.1425,-0.1445,-0.1471,-0.1477,-0.1399,-0.1157,-0.1159,-0.116,-0.1162,-0.1163,0,-0.14,-0.1436,-0.1483,-0.1558,-0.1598,-0.1722,-0.1776,-0.1716,-0.1613,-0.1642,-0.1585,-0.1355,-0.1189,-0.1175,-0.1031,-0.0983,-0.1033,-0.095,-0.105,-0.1092,-0.113,-0.1127,-0.071,-0.0709,-0.0708,-0.0707,0,0,-0.1327,-0.1294,-0.1311,-0.1299,-0.1386,-0.1391,-0.1385,-0.1284,-0.1255,-0.1087,-0.1034,-0.1107,-0.1128,-0.0912,-0.0855,-0.0779,-0.0934,-0.0732,-0.1093,-0.1254,-0.1291,-0.1392,-0.1431,0,0,0,0,0]},{"header":{"parameterUnit":"m.s-1","parameterCategory":2,"la1":30.2991,"la2":30.254,"lo1":-89.0895,"lo2":-89.0444,"dy":0.0017,"dx":0.0017,"nx":28,"ny":28,"refTime":"2024-06-22T09:00:00:Z","depth":"2","parameterNumber":3,"parameterNumberName":"V-component_of_CURRENTS"},"data":[0,0,0,0,0,0,0,0,0,0,0,0,0,0,0,0,0,0,0,0,0,0,0,0,0,0,0,0,0,0,0,0,0,0,0,0,0,0,0,0,0,0,0,0,0,0,0,0,0,0,0,0,0,0,0,0,0,0,0.0782,0.0783,0,0.0818,0.0819,0.0819,0.0823,0.0823,0.0822,0.0822,0.0782,0.0782,0.0781,0,0,0,0,0,0,0,0,0,0,0,0,0,0.075,0.0751,0.0782,0.0783,0.0783,0.0818,0.0819,0.0819,0.0823,0.0823,0.0822,0.0821,0.0783,0.0782,0.0781,0,0,0,0,0,0,0,0,0,0,0,0,0,0.0774,0.0751,0.0782,0.0788,0.0789,0.0818,0.0819,0.082,0.0823,0.0823,0.0822,0.0821,0.0783,0.0782,0.0781,0.079,0,0,0.0778,0.0778,0,0,0,0,0,0,0,0,0.0773,0.0775,0.0787,0.0788,0.0789,0.0814,0.0793,0.0806,0.0823,0.0812,0.0822,0.0821,0.0786,0.0785,0.0796,0.0788,0.0787,0.0778,0.0778,0.0777,0.0777,0,0,0,0,0,0,0,0.0771,0.0774,0.0798,0.0787,0.0788,0.08,0.0803,0.0796,0.0802,0.0813,0.0813,0.0815,0.0786,0.0797,0.0795,0.0786,0.0778,0.0778,0.0777,0.0777,0.0787,0.0788,0,0,0,0,0,0,0.0763,0.0772,0.0797,0.0799,0.0777,0.0801,0.0804,0.0808,0.0804,0.0803,0.0815,0.0815,0.0799,0.0796,0.0793,0.0758,0.0777,0.0777,0.0776,0.0786,0.0787,0.0788,0,0,0,0,0,0,0.0762,0.0765,0.0795,0.0785,0.079,0.0802,0.0807,0.0809,0.0803,0.0806,0.0804,0.0804,0.0798,0.0794,0.0786,0.0758,0.0776,0.0775,0.0785,0.0787,0.0788,0.0717,0,0,0,0,0,0,0.0761,0.0765,0.0754,0.0785,0.079,0.0792,0.0807,0.081,0.0806,0.0805,0.0796,0.0793,0.0797,0.0787,0.0785,0.0757,0.0775,0.0784,0.0786,0.0788,0.0718,0.0715,0.0713,0,0,0,0,0,0.076,0.0747,0.0753,0.0756,0.0779,0.0791,0.0795,0.0803,0.0805,0.0796,0.0805,0.0793,0.0796,0.0787,0.0784,0.0755,0.0784,0.0786,0.0787,0.0719,0.0716,0.0713,0,0,0,0,0,0,0.0729,0.0748,0.0754,0.0748,0.076,0.0791,0.0775,0.0793,0.0795,0.0785,0.0797,0.0794,0.0787,0.079,0.078,0.0771,0.079,0.0792,0.0739,0.0736,0.0734,0.0722,0.0774,0,0,0,0,0,0.0718,0.0708,0.0736,0.0726,0.0726,0.075,0.0752,0.0761,0.0773,0.0773,0.0778,0.0785,0.0798,0.0779,0.0797,0.0773,0.0796,0.076,0.0757,0.0755,0.0748,0.0745,0.074,0.0794,0.0794,0.0794,0,0,0.0703,0.0711,0.0705,0.0717,0.0722,0.0715,0.0748,0.074,0.0734,0.0766,0.0751,0.078,0.0798,0.0789,0.0783,0.0776,0.0764,0.0757,0.0754,0.0749,0.0746,0.074,0.0735,0.0796,0.0795,0.0795,0,0,0.0658,0.0671,0.0641,0.065,0.0652,0.0674,0.0668,0.0692,0.0695,0.0699,0.073,0.0745,0.0749,0.076,0.0765,0.076,0.0767,0.0761,0.0707,0.0702,0.0697,0.0692,0.0756,0.0757,0.0737,0.0737,0.0737,0,0.0633,0.0607,0.0635,0.0611,0.0609,0.065,0.0625,0.064,0.0663,0.0668,0.0681,0.0729,0.0738,0.0735,0.0734,0.0748,0.0767,0.0706,0.0694,0.069,0.0686,0.0752,0.0754,0.0733,0.0734,0.0734,0.0734,0,0.0573,0.0548,0.0529,0.0516,0.0526,0.0507,0.054,0.0547,0.0568,0.0596,0.0614,0.0652,0.0676,0.0684,0.0698,0.0679,0.0714,0.0704,0.0689,0.0675,0.0748,0.0752,0.0729,0.073,0.0731,0.0732,0,0,0.0517,0.0488,0.0478,0.0452,0.0471,0.047,0.0469,0.0483,0.0479,0.0519,0.0516,0.0558,0.0593,0.0605,0.0631,0.062,0.0626,0.0632,0.0634,0.0676,0.0657,0.0631,0.0634,0.0591,0.0591,0.059,0.0733,0,0.0449,0.0374,0.0397,0.0342,0.0308,0.0361,0.0361,0.0388,0.0422,0.0435,0.0486,0.0499,0.0555,0.0554,0.056,0.0599,0.0624,0.0591,0.0683,0.0687,0.0646,0.0632,0.0601,0.0718,0.0736,0.0737,0.0737,0,0.0377,0.0335,0.0255,0.0243,0.0236,0.0222,0.0238,0.0248,0.0295,0.0322,0.0363,0.0413,0.0433,0.0469,0.0546,0.0514,0.0587,0.063,0.0636,0.0631,0.0665,0.073,0.0724,0.0744,0.0743,0.0743,0.0742,0,0.0301,0.0244,0.0171,0.0163,0.0157,0.0139,0.0151,0.0198,0.0203,0.0239,0.0243,0.0311,0.032,0.0401,0.0521,0.0513,0.0614,0.0616,0.0692,0.0696,0.0699,0.0701,0.0685,0.0685,0.0685,0.0684,0.0684,0,0.0222,0.0169,0.0116,0.0075,0.001,0.0049,0.0013,0.0046,0.008,0.0076,0.0164,0.0174,0.0288,0.0373,0.0495,0.0607,0.0605,0.0687,0.0709,0.068,0.0679,0.0713,0.0715,0.069,0.0688,0.0687,0.0686,0,0.0151,0.0115,0.0029,-0.0019,-0.0039,-0.0084,-0.0085,-0.0098,-0.0055,-0.0062,-0.0062,0.0046,0.0151,0.0318,0.0462,0.0554,0.0677,0.0736,0.073,0.0745,0.0784,0.0781,0.0813,0.0813,0.0813,0.0813,0.0813,0,0.0111,0.0045,-0.0056,-0.0117,-0.0152,-0.0205,-0.0233,-0.0185,-0.0182,-0.0133,-0.0142,-0.0046,0.0045,0.0277,0.0457,0.0678,0.0709,0.0763,0.0723,0.0768,0.0787,0.0784,0.0781,0.0746,0.0745,0.0745,0.0744,0,0.0035,-0.0017,-0.0091,-0.0227,-0.0298,-0.0348,-0.0378,-0.0392,-0.0329,-0.0339,-0.0299,-0.023,0.0018,0.022,0.0496,0.0625,0.071,0.0754,0.0791,0.0688,0.0706,0.0724,0.0723,0.0739,0.074,0.074,0.074,0.0741,-0.0021,-0.0097,-0.0215,-0.0325,-0.0421,-0.0488,-0.0523,-0.0536,-0.0556,-0.0546,-0.0431,-0.0319,-0.0066,0.0283,0.0499,0.0695,0.0697,0.0744,0.0746,0.0748,0.0684,0.0696,0.0722,0.0723,0.0723,0.0723,0.0724,0,-0.0084,-0.017,-0.0293,-0.0432,-0.055,-0.0575,-0.0617,-0.0634,-0.0681,-0.0632,-0.0586,-0.0317,-0.0062,0.0233,0.0524,0.069,0.0708,0.0724,0.0719,0.0721,0.0725,0.0659,0.0692,0.0693,0.0693,0.0693,0,0,-0.0121,-0.0246,-0.0305,-0.0509,-0.0625,-0.0742,-0.0772,-0.0798,-0.075,-0.0718,-0.062,-0.0466,-0.0072,0.0116,0.0363,0.0534,0.0577,0.0551,0.0556,0.0523,0.0524,0.0717,0.0616,0,0,0,0,0]}],[{"header":{"parameterUnit":"m.s-1","parameterCategory":2,"la1":30.2991,"la2":30.254,"lo1":-89.0895,"lo2":-89.0444,"dy":0.0017,"dx":0.0017,"nx":28,"ny":28,"refTime":"2024-06-22T09:00:00:Z","depth":"4","parameterNumber":2,"parameterNumberName":"U-component_of_CURRENTS"},"data":[0,0,0,0,0,0,0,0,0,0,0,0,0,0,0,0,0,0,0,0,0,0,0,0,0,0,0,0,0,0,0,0,0,0,0,0,0,0,0,0,0,0,0,0,0,0,0,0,0,0,0,0,0,0,0,0,0,0,-0.0879,-0.0879,0,-0.0937,-0.0937,-0.0938,-0.0975,-0.0975,-0.0975,-0.0975,-0.1036,-0.1038,-0.1039,0,0,0,0,0,0,0,0,0,0,0,0,0,-0.0882,-0.0882,-0.0879,-0.0879,-0.088,-0.0936,-0.0937,-0.0938,-0.0975,-0.0975,-0.0975,-0.0975,-0.1035,-0.1037,-0.1039,0,0,0,0,0,0,0,0,0,0,0,0,0,-0.0906,-0.0881,-0.0879,-0.0903,-0.0906,-0.0936,-0.0937,-0.0939,-0.0975,-0.0975,-0.0975,-0.0975,-0.1035,-0.1037,-0.104,-0.1055,0,0,-0.1047,-0.1048,0,0,0,0,0,0,0,0,-0.0905,-0.0906,-0.0899,-0.0901,-0.0904,-0.0947,-0.0961,-0.0977,-0.0975,-0.0951,-0.0975,-0.0975,-0.1005,-0.101,-0.1024,-0.1058,-0.106,-0.1047,-0.1049,-0.105,-0.105,0,0,0,0,0,0,0,-0.0903,-0.0905,-0.0904,-0.09,-0.0903,-0.0939,-0.0942,-0.0965,-0.0979,-0.0953,-0.0956,-0.0958,-0.1007,-0.1022,-0.1026,-0.1061,-0.1047,-0.1049,-0.1051,-0.1052,-0.1161,-0.1163,0,0,0,0,0,0,-0.0887,-0.0902,-0.0902,-0.0906,-0.0902,-0.0938,-0.0942,-0.0935,-0.0979,-0.0985,-0.0958,-0.096,-0.1017,-0.1023,-0.1028,-0.1107,-0.105,-0.1052,-0.1053,-0.116,-0.1161,-0.1163,0,0,0,0,0,0,-0.0886,-0.0886,-0.09,-0.0904,-0.0908,-0.0937,-0.093,-0.0936,-0.096,-0.0982,-0.0989,-0.0976,-0.1018,-0.1024,-0.1068,-0.1107,-0.1053,-0.1055,-0.1158,-0.116,-0.1162,-0.1227,0,0,0,0,0,0,-0.0886,-0.0885,-0.0884,-0.0903,-0.0907,-0.0927,-0.093,-0.0937,-0.096,-0.0963,-0.1,-0.1005,-0.1018,-0.1064,-0.107,-0.1109,-0.1057,-0.1156,-0.1159,-0.1162,-0.1223,-0.1231,-0.1238,0,0,0,0,0,-0.0886,-0.088,-0.0884,-0.0884,-0.0902,-0.0928,-0.0935,-0.0957,-0.0961,-0.0978,-0.1008,-0.1004,-0.1086,-0.1068,-0.1074,-0.1115,-0.1155,-0.1158,-0.1161,-0.1219,-0.1229,-0.1237,0,0,0,0,0,0,-0.0882,-0.0883,-0.0888,-0.0883,-0.0908,-0.0933,-0.0947,-0.0962,-0.0999,-0.1005,-0.1024,-0.1032,-0.1082,-0.1087,-0.1067,-0.1153,-0.1119,-0.1124,-0.1161,-0.1171,-0.1178,-0.1153,-0.1059,0,0,0,0,0,-0.0879,-0.0871,-0.089,-0.0887,-0.0899,-0.0925,-0.0941,-0.096,-0.0988,-0.1005,-0.1033,-0.1064,-0.11,-0.1125,-0.1149,-0.1199,-0.1181,-0.1229,-0.1236,-0.1242,-0.1226,-0.1235,-0.1241,-0.1174,-0.1174,-0.1174,0,0,-0.0875,-0.0874,-0.0871,-0.0886,-0.0904,-0.0932,-0.0936,-0.0963,-0.0998,-0.1005,-0.1063,-0.1086,-0.1115,-0.1173,-0.1197,-0.1186,-0.1257,-0.1247,-0.1252,-0.1232,-0.1239,-0.1245,-0.125,-0.1176,-0.1175,-0.1175,0,0,-0.086,-0.0865,-0.0857,-0.0883,-0.0911,-0.094,-0.0949,-0.0988,-0.102,-0.1076,-0.1091,-0.1137,-0.1192,-0.1226,-0.1249,-0.1309,-0.1288,-0.1322,-0.1353,-0.1362,-0.1367,-0.1371,-0.1372,-0.1376,-0.1336,-0.1336,-0.1336,0,-0.0857,-0.0848,-0.0864,-0.0875,-0.0899,-0.0943,-0.0963,-0.101,-0.1064,-0.1092,-0.1101,-0.1188,-0.1218,-0.1285,-0.1313,-0.1327,-0.1318,-0.132,-0.1371,-0.1374,-0.1377,-0.1377,-0.138,-0.134,-0.1339,-0.1339,-0.1339,0,-0.084,-0.0848,-0.085,-0.0878,-0.0914,-0.0939,-0.1003,-0.1052,-0.1097,-0.1137,-0.1209,-0.1256,-0.1305,-0.1334,-0.1347,-0.1397,-0.1379,-0.1372,-0.1345,-0.1388,-0.1385,-0.1387,-0.1345,-0.1343,-0.1342,-0.1341,0,0,-0.0791,-0.0828,-0.083,-0.0846,-0.0918,-0.0941,-0.102,-0.109,-0.1134,-0.1206,-0.1259,-0.134,-0.136,-0.1384,-0.1414,-0.1432,-0.1466,-0.1415,-0.1414,-0.141,-0.1477,-0.1378,-0.1371,-0.1466,-0.1466,-0.1466,-0.1471,0,-0.0773,-0.0774,-0.0818,-0.0856,-0.0868,-0.0954,-0.1023,-0.11,-0.1171,-0.124,-0.1308,-0.1366,-0.1385,-0.1416,-0.1442,-0.1453,-0.1471,-0.1464,-0.1439,-0.1438,-0.134,-0.1369,-0.1468,-0.1473,-0.1473,-0.1473,-0.1474,0,-0.0742,-0.0745,-0.0758,-0.0834,-0.0852,-0.0895,-0.1,-0.1074,-0.1192,-0.1249,-0.1325,-0.1374,-0.1442,-0.144,-0.1482,-0.1475,-0.1477,-0.1479,-0.1479,-0.1356,-0.1342,-0.1417,-0.1477,-0.1476,-0.1476,-0.1476,-0.1476,0,-0.0669,-0.0714,-0.0716,-0.074,-0.0832,-0.0868,-0.0939,-0.1058,-0.1124,-0.1248,-0.1293,-0.1383,-0.1426,-0.1448,-0.1483,-0.1479,-0.1502,-0.15,-0.1413,-0.1406,-0.1465,-0.146,-0.151,-0.151,-0.151,-0.151,-0.151,0,-0.0625,-0.0636,-0.0674,-0.0676,-0.0713,-0.0805,-0.0866,-0.0967,-0.1086,-0.1149,-0.1281,-0.1324,-0.1425,-0.1465,-0.1482,-0.1451,-0.1508,-0.1406,-0.1396,-0.1496,-0.1494,-0.1467,-0.1462,-0.151,-0.151,-0.151,-0.151,0,-0.0556,-0.0579,-0.0585,-0.0647,-0.0672,-0.0698,-0.0817,-0.0855,-0.0994,-0.1078,-0.1119,-0.1276,-0.1326,-0.1411,-0.1452,-0.143,-0.1424,-0.1401,-0.1503,-0.1502,-0.1322,-0.1321,-0.1289,-0.1285,-0.1282,-0.128,-0.1277,0,-0.0523,-0.0505,-0.0537,-0.0547,-0.0575,-0.0622,-0.0654,-0.079,-0.0838,-0.1024,-0.1047,-0.1158,-0.1245,-0.1239,-0.1327,-0.1359,-0.135,-0.1342,-0.1324,-0.1302,-0.1298,-0.1301,-0.1304,-0.1273,-0.1272,-0.1271,-0.127,0,-0.0459,-0.046,-0.0463,-0.0468,-0.0478,-0.0494,-0.0554,-0.0579,-0.0736,-0.0857,-0.0954,-0.1027,-0.1087,-0.1159,-0.1206,-0.1224,-0.1345,-0.1311,-0.1317,-0.1299,-0.1283,-0.1282,-0.1288,-0.126,-0.1261,-0.1262,-0.1263,0,-0.0414,-0.0388,-0.0381,-0.0393,-0.0401,-0.038,-0.0416,-0.0473,-0.0539,-0.0764,-0.0772,-0.0922,-0.1046,-0.1086,-0.1119,-0.1144,-0.1126,-0.1095,-0.1112,-0.1124,-0.1074,-0.1029,-0.0909,0,0,0,0,0,-0.0363,-0.0326,-0.0321,-0.0301,-0.0307,-0.031,-0.0366,-0.041,-0.0539,-0.0572,-0.0689,-0.0754,-0.085,-0.0927,-0.0922,-0.1029,-0.1114,-0.1016,-0.1081,-0.1202,-0.1214,-0.1173,0,0,0,0,0,0,-0.0325,-0.0302,-0.0284,-0.0224,-0.0208,-0.018,-0.0205,-0.0283,-0.0329,-0.0493,-0.055,-0.0684,-0.0785,-0.0839,-0.0899,-0.0921,-0.094,-0.1112,-0.111,-0.1195,-0.1206,-0.1216,-0.1178,0,0,0,0,0]},{"header":{"parameterUnit":"m.s-1","parameterCategory":2,"la1":30.2991,"la2":30.254,"lo1":-89.0895,"lo2":-89.0444,"dy":0.0017,"dx":0.0017,"nx":28,"ny":28,"refTime":"2024-06-22T09:00:00:Z","depth":"4","parameterNumber":3,"parameterNumberName":"V-component_of_CURRENTS"},"data":[0,0,0,0,0,0,0,0,0,0,0,0,0,0,0,0,0,0,0,0,0,0,0,0,0,0,0,0,0,0,0,0,0,0,0,0,0,0,0,0,0,0,0,0,0,0,0,0,0,0,0,0,0,0,0,0,0,0,0.0176,0.0176,0,0.016,0.016,0.016,0.0194,0.0195,0.0196,0.0197,0.0237,0.0237,0.0237,0,0,0,0,0,0,0,0,0,0,0,0,0,0.0288,0.0285,0.0176,0.0176,0.0175,0.016,0.016,0.016,0.0194,0.0195,0.0196,0.0197,0.0237,0.0237,0.0237,0,0,0,0,0,0,0,0,0,0,0,0,0,0.0254,0.0285,0.0176,0.0189,0.0189,0.016,0.016,0.016,0.0194,0.0195,0.0196,0.0198,0.0237,0.0237,0.0237,0.0213,0,0,0.0238,0.0239,0,0,0,0,0,0,0,0,0.0256,0.0251,0.0187,0.0188,0.0188,0.0178,0.0214,0.018,0.0193,0.0195,0.0197,0.0198,0.022,0.0222,0.0218,0.0215,0.0217,0.0238,0.0239,0.0239,0.0239,0,0,0,0,0,0,0,0.0258,0.0252,0.0172,0.0187,0.0187,0.0213,0.0209,0.0208,0.0203,0.0195,0.0196,0.019,0.0221,0.0218,0.022,0.0217,0.0238,0.0239,0.0239,0.0239,0.0229,0.0228,0,0,0,0,0,0,0.0251,0.0253,0.0173,0.0171,0.0224,0.0209,0.0205,0.0182,0.0202,0.0205,0.0189,0.0192,0.0217,0.0219,0.0221,0.0215,0.0239,0.0239,0.0239,0.0229,0.0228,0.0228,0,0,0,0,0,0,0.0253,0.0243,0.0173,0.0212,0.0204,0.0205,0.0179,0.0181,0.018,0.0197,0.0202,0.0186,0.0218,0.0221,0.0218,0.0216,0.0239,0.024,0.023,0.0229,0.0228,0.0189,0,0,0,0,0,0,0.0256,0.0243,0.023,0.021,0.0202,0.0145,0.0178,0.018,0.0173,0.0177,0.0195,0.0201,0.0219,0.0217,0.0218,0.0217,0.024,0.023,0.0229,0.0228,0.0191,0.0187,0.0184,0,0,0,0,0,0.026,0.0224,0.0229,0.022,0.018,0.0143,0.0141,0.0149,0.0171,0.0157,0.0177,0.02,0.0213,0.0216,0.0218,0.0217,0.0231,0.023,0.0228,0.0192,0.0188,0.0184,0,0,0,0,0,0,0.0259,0.0223,0.0228,0.0183,0.0163,0.0148,0.0134,0.0143,0.0146,0.0158,0.0184,0.0189,0.0189,0.0202,0.0206,0.0212,0.0229,0.0228,0.0201,0.0197,0.0193,0.0178,0.024,0,0,0,0,0,0.0253,0.0221,0.0194,0.0159,0.0146,0.0142,0.0132,0.0136,0.0133,0.0137,0.0149,0.0169,0.0182,0.0189,0.0197,0.0191,0.0214,0.0195,0.0191,0.0188,0.0176,0.0209,0.0207,0.0224,0.0224,0.0224,0,0,0.0246,0.0219,0.0204,0.0158,0.0146,0.0112,0.0139,0.0114,0.0101,0.0139,0.0128,0.015,0.0176,0.0176,0.0178,0.0189,0.0196,0.0187,0.0184,0.0174,0.0208,0.0206,0.0205,0.0223,0.0224,0.0224,0,0,0.0205,0.0187,0.0148,0.0123,0.0095,0.0091,0.0081,0.0064,0.0073,0.0059,0.0094,0.0112,0.0118,0.0142,0.0157,0.0134,0.0172,0.0143,0.0114,0.0146,0.0145,0.0145,0.0175,0.0177,0.0145,0.0145,0.0145,0,0.02,0.014,0.0133,0.0085,0.0062,0.0077,0.0033,0.0037,0.0026,0.0034,0.005,0.0082,0.0103,0.0121,0.0116,0.0126,0.0149,0.013,0.0142,0.0142,0.0142,0.0173,0.0176,0.0143,0.0143,0.0143,0.0143,0,0.013,0.0084,0.0054,0.0004,-0.0018,-0.0057,-0.0058,-0.0064,-0.0044,-0.0029,-0.001,0.0024,0.0049,0.0062,0.008,0.0095,0.0113,0.0132,0.0153,0.0138,0.0171,0.0175,0.014,0.014,0.0141,0.0142,0,0,0.0111,0.0023,0.0014,-0.0026,-0.0065,-0.0095,-0.0111,-0.0122,-0.0121,-0.0099,-0.009,-0.0056,-0.0016,0.0001,0.0041,0.0065,0.0088,0.0092,0.0095,0.0122,0.0158,0.0156,0.0161,0.0112,0.0113,0.0113,0.0183,0,0.0059,-0.0042,-0.0066,-0.0149,-0.02,-0.0196,-0.0216,-0.0212,-0.0184,-0.017,-0.0103,-0.0081,-0.0042,-0.0022,0.001,0.0069,0.0096,0.0067,0.0169,0.0171,0.0172,0.0164,0.0114,0.0186,0.0187,0.0188,0.0189,0,0.0003,-0.0063,-0.0154,-0.0234,-0.0253,-0.029,-0.0308,-0.0321,-0.0278,-0.0253,-0.0201,-0.0143,-0.0089,-0.0057,0.004,0.0022,0.0078,0.0124,0.0128,0.0139,0.0176,0.0205,0.0196,0.0196,0.0195,0.0194,0.0194,0,-0.0007,-0.012,-0.0194,-0.0226,-0.0306,-0.0334,-0.0359,-0.0342,-0.0348,-0.0294,-0.0277,-0.0194,-0.0148,-0.0068,0.0042,0.004,0.0148,0.0164,0.0216,0.0217,0.0216,0.0216,0.0219,0.0219,0.0219,0.0219,0.0218,0,-0.0056,-0.0118,-0.0211,-0.0257,-0.0338,-0.0368,-0.0416,-0.0417,-0.0406,-0.0403,-0.0314,-0.0284,-0.015,-0.006,0.0029,0.0139,0.0148,0.0203,0.0231,0.0198,0.0196,0.022,0.0219,0.0221,0.0221,0.022,0.022,0,-0.006,-0.0122,-0.0213,-0.0311,-0.035,-0.0397,-0.0474,-0.0494,-0.0476,-0.0466,-0.0449,-0.0347,-0.0227,-0.0089,0.005,0.0122,0.0226,0.0262,0.0217,0.0243,0.0274,0.0271,0.0316,0.0317,0.0317,0.0317,0.0318,0,-0.0079,-0.0128,-0.0243,-0.0301,-0.0355,-0.0436,-0.0487,-0.052,-0.0534,-0.0501,-0.0491,-0.0379,-0.0292,-0.0087,0.0046,0.0224,0.0246,0.0298,0.0276,0.0259,0.0283,0.0278,0.0274,0.0318,0.0318,0.0318,0.0319,0,-0.0114,-0.0139,-0.0207,-0.0316,-0.0395,-0.0483,-0.0555,-0.0573,-0.0586,-0.0581,-0.0515,-0.0399,-0.0261,-0.0094,0.0054,0.0176,0.0262,0.0302,0.0302,0.0282,0.0262,0.0284,0.028,0.032,0.032,0.032,0.0319,0,-0.0123,-0.0162,-0.0238,-0.0328,-0.0424,-0.0496,-0.0542,-0.0573,-0.0594,-0.0561,-0.0543,-0.0392,-0.0313,-0.012,0.0011,0.014,0.0162,0.019,0.0196,0.0196,0.014,0.0097,0.0121,0,0,0,0,0,-0.0134,-0.0172,-0.0257,-0.0346,-0.0427,-0.0486,-0.0573,-0.0603,-0.062,-0.0579,-0.0565,-0.0437,-0.0237,-0.0149,-0.0021,0.0019,0.0188,0.0171,0.0225,0.0327,0.0326,0.028,0,0,0,0,0,0,-0.0153,-0.0211,-0.0247,-0.0333,-0.0389,-0.0483,-0.0537,-0.0557,-0.0539,-0.0537,-0.0429,-0.0402,-0.0203,-0.0293,-0.0009,0.0027,0.0075,0.0258,0.0261,0.0328,0.0327,0.0325,0.0278,0,0,0,0,0]}]]